User: anonymous   Login
Location: Sungai Jaoh
(2.9167°N, 113.9167°E)
Time: 10:45:33
(UTC+00:00)
Language:

BLOCK DM-SL R/B - Orbit

View from above orbital plane
View from above orbital plane
View from above satellite
View from above satellite

Ground track
Ground track

The orbit data is extracted from the following two-line orbital elements,

1 32730U 08013B   21063.53042218  .00030591 -40809-6  97252-3 0  9998
2 32730   0.3329  95.5637 6473745  50.0069 281.9825  3.41569507129383
Epoch (UTC): 04 March 2021 12:43:48
Eccentricity: 0.6473745
inclination: 0.3329°
perigee height: 189 km
apogee height: 24303 km
right ascension of ascending node: 95.5637°
argument of perigee: 50.0069°
revolutions per day: 3.41569507
mean anomaly at epoch: 281.9825°
orbit number at epoch: 12938

The dashed part of the orbit path shows where the satellite is in the earth's shadow,  

DLR